• In Hungary
  • List of Countries
  • For 7 days
  • Water Temperature
  • Satellite Maps
  • Weather Map
  • News
  • Weather Widgets
  • user-avatar
    Login

    Hourly Weather Gurevo

    Today, 27 May, Sunday

    Time Temperature Precipitation Wind Pressure Humidity
    00:00 +9°C° 0 mm 2 mps 757 mmHg 70%
    01:00 +9°C° 0 mm 2 mps 757 mmHg 72%
    02:00 +8°C° 0 mm 2 mps 757 mmHg 73%
    03:00 +8°C° 0 mm 2 mps 758 mmHg 75%
    04:00 +8°C° 0 mm 2 mps 757 mmHg 76%
    05:00 +9°C° 0 mm 2 mps 757 mmHg 76%
    06:00 +9°C° 0 mm 2 mps 757 mmHg 77%
    07:00 +11°C° 0 mm 3 mps 757 mmHg 72%
    08:00 +13°C° 0 mm 3 mps 756 mmHg 67%
    09:00 +16°C° 0 mm 3 mps 756 mmHg 63%
    10:00 +17°C° 0 mm 4 mps 756 mmHg 60%
    11:00 +18°C° 0 mm 4 mps 755 mmHg 57%
    12:00 +19°C° 0 mm 4 mps 755 mmHg 54%
    13:00 +19°C° 0 mm 4 mps 754 mmHg 54%
    14:00 +20°C° 0 mm 5 mps 754 mmHg 55%
    15:00 +20°C° 0 mm 5 mps 753 mmHg 55%
    16:00 +20°C° 0 mm 5 mps 753 mmHg 58%
    17:00 +20°C° 0 mm 4 mps 752 mmHg 61%
    18:00 +20°C° 0 mm 4 mps 752 mmHg 65%
    19:00 +18°C° 0 mm 4 mps 751 mmHg 69%
    20:00 +17°C° 0 mm 4 mps 751 mmHg 74%
    21:00 +14°C° 0 mm 4 mps 751 mmHg 78%
    22:00 +14°C° 0 mm 4 mps 751 mmHg 79%
    23:00 +14°C° 0 mm 4 mps 751 mmHg 80%

    Tomorrow, 28 May, Monday

    Time Temperature Precipitation Wind Pressure Humidity
    00:00 +13°C° 0 mm 4 mps 751 mmHg 81%
    01:00 +13°C° 0 mm 4 mps 751 mmHg 84%
    02:00 +12°C° 0 mm 3 mps 751 mmHg 87%
    03:00 +12°C° 0 mm 3 mps 752 mmHg 90%
    04:00 +12°C° 0 mm 3 mps 752 mmHg 90%
    05:00 +12°C° 0 mm 4 mps 752 mmHg 89%
    06:00 +12°C° 0 mm 4 mps 753 mmHg 88%
    07:00 +13°C° 0 mm 4 mps 753 mmHg 82%
    08:00 +14°C° 0 mm 4 mps 753 mmHg 77%
    09:00 +15°C° 0 mm 4 mps 754 mmHg 71%
    10:00 +17°C° 0 mm 4 mps 754 mmHg 65%
    11:00 +17°C° 0 mm 5 mps 754 mmHg 59%
    12:00 +17°C° 0 mm 5 mps 755 mmHg 53%
    13:00 +17°C° 0 mm 5 mps 755 mmHg 51%
    14:00 +17°C° 0 mm 5 mps 755 mmHg 48%
    15:00 +19°C° 0 mm 5 mps 755 mmHg 46%
    16:00 +18°C° 0 mm 4 mps 755 mmHg 49%
    17:00 +18°C° 0 mm 4 mps 755 mmHg 52%
    18:00 +17°C° 0 mm 4 mps 755 mmHg 55%
    19:00 +14°C° 0 mm 3 mps 755 mmHg 59%
    20:00 +12°C° 0 mm 3 mps 756 mmHg 63%
    21:00 +10°C° 0 mm 2 mps 756 mmHg 66%
    22:00 +10°C° 0 mm 2 mps 756 mmHg 67%
    23:00 +9°C° 0 mm 2 mps 756 mmHg 67%

    Day after tomorrow, 29 May, Tuesday

    Time Temperature Precipitation Wind Pressure Humidity
    00:00 +8°C° 0 mm 2 mps 757 mmHg 67%
    01:00 +8°C° 0 mm 1 mps 757 mmHg 68%
    02:00 +8°C° 0 mm 1 mps 757 mmHg 69%
    03:00 +7°C° 0 mm 1 mps 757 mmHg 70%
    04:00 +8°C° 0 mm 1 mps 757 mmHg 70%
    05:00 +9°C° 0 mm 1 mps 757 mmHg 70%
    06:00 +9°C° 0 mm 0 mps 757 mmHg 69%
    07:00 +12°C° 0 mm 1 mps 757 mmHg 64%
    08:00 +13°C° 0 mm 1 mps 757 mmHg 58%
    09:00 +15°C° 0 mm 2 mps 757 mmHg 53%
    10:00 +16°C° 0 mm 2 mps 756 mmHg 51%
    11:00 +17°C° 0 mm 2 mps 756 mmHg 49%
    12:00 +18°C° 0 mm 2 mps 755 mmHg 46%
    13:00 +19°C° 0 mm 2 mps 755 mmHg 47%
    14:00 +20°C° 0 mm 3 mps 754 mmHg 47%
    15:00 +20°C° 0 mm 3 mps 754 mmHg 47%
    16:00 +20°C° 0 mm 3 mps 753 mmHg 51%
    17:00 +20°C° 0 mm 3 mps 753 mmHg 56%
    18:00 +20°C° 0 mm 3 mps 752 mmHg 60%
    19:00 +18°C° 0 mm 3 mps 752 mmHg 65%
    20:00 +16°C° 0 mm 3 mps 751 mmHg 69%
    21:00 +13°C° 0 mm 3 mps 751 mmHg 74%
    22:00 +13°C° 0 mm 3 mps 751 mmHg 75%
    23:00 +12°C° 0 mm 4 mps 750 mmHg 76%

    30 May, Wednesday

    Time Temperature Precipitation Wind Pressure Humidity
    00:00 +12°C° 0 mm 4 mps 750 mmHg 77%
    01:00 +11°C° 0 mm 4 mps 750 mmHg 77%
    02:00 +11°C° 0 mm 4 mps 749 mmHg 78%
    03:00 +11°C° 0 mm 4 mps 749 mmHg 79%
    04:00 +10°C° 0 mm 5 mps 748 mmHg 79%
    05:00 +12°C° 0 mm 5 mps 748 mmHg 80%
    06:00 +12°C° 0 mm 5 mps 748 mmHg 80%
    07:00 +14°C° 0 mm 5 mps 747 mmHg 77%
    08:00 +16°C° 0 mm 6 mps 747 mmHg 75%
    09:00 +19°C° 0 mm 6 mps 746 mmHg 73%
    10:00 +21°C° 0 mm 6 mps 746 mmHg 68%
    11:00 +22°C° 0 mm 6 mps 745 mmHg 64%
    12:00 +24°C° 0 mm 6 mps 745 mmHg 59%
    13:00 +24°C° 0 mm 7 mps 744 mmHg 59%
    14:00 +24°C° 0 mm 7 mps 743 mmHg 58%
    15:00 +24°C° 0 mm 7 mps 743 mmHg 58%
    16:00 +24°C° 0 mm 6 mps 742 mmHg 61%
    17:00 +24°C° 0 mm 6 mps 742 mmHg 64%
    18:00 +23°C° 0 mm 5 mps 741 mmHg 67%
    19:00 +22°C° 0.1 mm 5 mps 741 mmHg 70%
    20:00 +20°C° 0.1 mm 5 mps 741 mmHg 74%
    21:00 +19°C° 0.1 mm 5 mps 740 mmHg 77%
    22:00 +17°C° 0.2 mm 5 mps 740 mmHg 81%
    23:00 +17°C° 0.2 mm 5 mps 740 mmHg 85%

    31 May, Thursday

    Time Temperature Precipitation Wind Pressure Humidity
    00:00 +17°C° 0.2 mm 4 mps 740 mmHg 89%
    01:00 +15°C° 0 mm 4 mps 740 mmHg 88%
    02:00 +14°C° 0 mm 4 mps 740 mmHg 87%
    03:00 +13°C° 0 mm 3 mps 741 mmHg 86%
    04:00 +12°C° 0 mm 3 mps 741 mmHg 83%
    05:00 +11°C° 0 mm 3 mps 741 mmHg 80%
    06:00 +11°C° 0 mm 3 mps 741 mmHg 77%
    07:00 +11°C° 0 mm 3 mps 741 mmHg 73%
    08:00 +12°C° 0 mm 3 mps 742 mmHg 70%
    09:00 +13°C° 0 mm 3 mps 742 mmHg 66%
    10:00 +14°C° 0 mm 3 mps 742 mmHg 62%
    11:00 +16°C° 0 mm 3 mps 742 mmHg 58%
    12:00 +17°C° 0 mm 3 mps 742 mmHg 54%
    13:00 +17°C° 0 mm 3 mps 742 mmHg 54%
    14:00 +17°C° 0 mm 4 mps 742 mmHg 54%
    15:00 +18°C° 0 mm 4 mps 742 mmHg 53%
    16:00 +17°C° 0 mm 4 mps 741 mmHg 56%
    17:00 +17°C° 0 mm 3 mps 741 mmHg 58%
    18:00 +16°C° 0 mm 3 mps 741 mmHg 61%
    19:00 +14°C° 0 mm 3 mps 742 mmHg 63%
    20:00 +13°C° 0 mm 3 mps 742 mmHg 65%
    21:00 +11°C° 0 mm 3 mps 742 mmHg 67%
    22:00 +11°C° 0 mm 4 mps 742 mmHg 66%
    23:00 +10°C° 0 mm 4 mps 742 mmHg 65%

    1 June, Friday

    Time Temperature Precipitation Wind Pressure Humidity
    00:00 +8°C° 0 mm 4 mps 742 mmHg 64%
    01:00 +7°C° 0 mm 4 mps 742 mmHg 66%
    02:00 +6°C° 0 mm 4 mps 742 mmHg 68%
    03:00 +5°C° 0 mm 4 mps 742 mmHg 70%
    04:00 +5°C° 0 mm 4 mps 742 mmHg 70%
    05:00 +5°C° 0 mm 4 mps 742 mmHg 71%
    06:00 +5°C° 0 mm 4 mps 742 mmHg 71%
    07:00 +7°C° 0 mm 5 mps 742 mmHg 67%
    08:00 +8°C° 0 mm 5 mps 742 mmHg 63%
    09:00 +10°C° 0 mm 5 mps 742 mmHg 60%
    10:00 +11°C° 0 mm 6 mps 742 mmHg 56%
    11:00 +11°C° 0 mm 6 mps 742 mmHg 53%
    12:00 +13°C° 0 mm 6 mps 742 mmHg 50%
    13:00 +13°C° 0 mm 6 mps 742 mmHg 50%
    14:00 +13°C° 0 mm 6 mps 742 mmHg 50%
    15:00 +13°C° 0 mm 6 mps 742 mmHg 50%
    16:00 +13°C° 0.1 mm 6 mps 742 mmHg 53%
    17:00 +11°C° 0.1 mm 6 mps 743 mmHg 55%
    18:00 +10°C° 0.1 mm 6 mps 743 mmHg 57%
    19:00 +9°C° 0 mm 6 mps 743 mmHg 58%
    20:00 +8°C° 0 mm 6 mps 743 mmHg 59%
    21:00 +7°C° 0 mm 5 mps 744 mmHg 60%
    22:00 +6°C° 0 mm 5 mps 744 mmHg 60%
    23:00 +5°C° 0 mm 5 mps 744 mmHg 61%
    Show more